When you browse on this site, cookies collect data to enhance your experience and personalize the content and advertising you see.
Visit our Privacy Policy to learn more. By continuing to use the site, you agree to this use of cookies and data.
  • In Latvia
  • List of Countries
  • For 7 days
  • Water Temperature
  • Satellite Maps
  • Weather Map
  • Weather Widgets
  • user-avatar
    Login

    Hourly Weather Hail

    Today, 23 July, Tuesday

    Time Temperature Precipitation Wind Pressure Humidity
    00:00 +29°C° 0 mm 2 mps 657 mmHg 12%
    01:00 +29°C° 0 mm 2 mps 656 mmHg 13%
    02:00 +29°C° 0 mm 3 mps 656 mmHg 13%
    03:00 +28°C° 0 mm 3 mps 656 mmHg 13%
    04:00 +28°C° 0 mm 3 mps 656 mmHg 14%
    05:00 +28°C° 0 mm 3 mps 656 mmHg 15%
    06:00 +28°C° 0 mm 3 mps 656 mmHg 15%
    07:00 +32°C° 0 mm 4 mps 657 mmHg 13%
    08:00 +35°C° 0 mm 6 mps 658 mmHg 11%
    09:00 +39°C° 0 mm 7 mps 659 mmHg 9%
    10:00 +40°C° 0 mm 7 mps 659 mmHg 8%
    11:00 +42°C° 0 mm 6 mps 659 mmHg 7%
    12:00 +44°C° 0 mm 6 mps 659 mmHg 6%
    13:00 +43°C° 0 mm 5 mps 659 mmHg 6%
    14:00 +45°C° 0 mm 5 mps 658 mmHg 5%
    15:00 +45°C° 0 mm 5 mps 658 mmHg 5%
    16:00 +44°C° 0 mm 4 mps 658 mmHg 5%
    17:00 +43°C° 0 mm 4 mps 657 mmHg 5%
    18:00 +43°C° 0 mm 4 mps 657 mmHg 5%
    19:00 +41°C° 0 mm 4 mps 657 mmHg 6%
    20:00 +37°C° 0 mm 4 mps 657 mmHg 7%
    21:00 +35°C° 0 mm 4 mps 657 mmHg 8%
    22:00 +34°C° 0 mm 4 mps 657 mmHg 10%
    23:00 +31°C° 0 mm 3 mps 656 mmHg 13%

    Tomorrow, 24 July, Wednesday

    Time Temperature Precipitation Wind Pressure Humidity
    00:00 +30°C° 0 mm 2 mps 656 mmHg 15%
    01:00 +29°C° 0 mm 2 mps 656 mmHg 16%
    02:00 +28°C° 0 mm 2 mps 656 mmHg 16%
    03:00 +27°C° 0 mm 1 mps 655 mmHg 17%
    04:00 +27°C° 0 mm 2 mps 656 mmHg 18%
    05:00 +27°C° 0 mm 2 mps 656 mmHg 18%
    06:00 +27°C° 0 mm 3 mps 656 mmHg 19%
    07:00 +29°C° 0 mm 3 mps 657 mmHg 17%
    08:00 +32°C° 0 mm 2 mps 658 mmHg 16%
    09:00 +36°C° 0 mm 2 mps 659 mmHg 14%
    10:00 +38°C° 0 mm 2 mps 659 mmHg 12%
    11:00 +39°C° 0 mm 2 mps 659 mmHg 9%
    12:00 +41°C° 0 mm 1 mps 660 mmHg 7%
    13:00 +42°C° 0 mm 2 mps 659 mmHg 7%
    14:00 +42°C° 0 mm 2 mps 659 mmHg 6%
    15:00 +43°C° 0 mm 2 mps 659 mmHg 6%
    16:00 +43°C° 0 mm 2 mps 658 mmHg 6%
    17:00 +43°C° 0 mm 3 mps 658 mmHg 6%
    18:00 +43°C° 0 mm 3 mps 658 mmHg 6%
    19:00 +40°C° 0 mm 3 mps 658 mmHg 7%
    20:00 +38°C° 0 mm 4 mps 658 mmHg 8%
    21:00 +36°C° 0 mm 4 mps 658 mmHg 9%
    22:00 +35°C° 0 mm 4 mps 658 mmHg 10%
    23:00 +34°C° 0 mm 3 mps 658 mmHg 11%

    Day after tomorrow, 25 July, Thursday

    Time Temperature Precipitation Wind Pressure Humidity
    00:00 +31°C° 0 mm 3 mps 658 mmHg 12%
    01:00 +31°C° 0 mm 3 mps 657 mmHg 13%
    02:00 +30°C° 0 mm 2 mps 657 mmHg 13%
    03:00 +30°C° 0 mm 2 mps 657 mmHg 14%
    04:00 +29°C° 0 mm 2 mps 657 mmHg 14%
    05:00 +28°C° 0 mm 2 mps 657 mmHg 15%
    06:00 +28°C° 0 mm 2 mps 658 mmHg 15%
    07:00 +31°C° 0 mm 2 mps 659 mmHg 13%
    08:00 +35°C° 0 mm 2 mps 660 mmHg 11%
    09:00 +37°C° 0 mm 2 mps 661 mmHg 9%
    10:00 +39°C° 0 mm 2 mps 661 mmHg 8%
    11:00 +41°C° 0 mm 1 mps 661 mmHg 7%
    12:00 +42°C° 0 mm 1 mps 661 mmHg 6%
    13:00 +43°C° 0 mm 1 mps 660 mmHg 6%
    14:00 +43°C° 0 mm 2 mps 660 mmHg 6%
    15:00 +45°C° 0 mm 2 mps 660 mmHg 5%
    16:00 +44°C° 0 mm 3 mps 659 mmHg 6%
    17:00 +44°C° 0 mm 4 mps 659 mmHg 6%
    18:00 +43°C° 0 mm 5 mps 659 mmHg 6%
    19:00 +41°C° 0 mm 5 mps 659 mmHg 7%
    20:00 +38°C° 0 mm 4 mps 659 mmHg 8%
    21:00 +36°C° 0 mm 4 mps 659 mmHg 9%
    22:00 +35°C° 0 mm 3 mps 658 mmHg 9%
    23:00 +33°C° 0 mm 3 mps 658 mmHg 10%

    26 July, Friday

    Time Temperature Precipitation Wind Pressure Humidity
    00:00 +31°C° 0 mm 2 mps 658 mmHg 11%
    01:00 +31°C° 0 mm 2 mps 658 mmHg 12%
    02:00 +30°C° 0 mm 2 mps 657 mmHg 13%
    03:00 +29°C° 0 mm 2 mps 657 mmHg 14%
    04:00 +29°C° 0 mm 2 mps 657 mmHg 14%
    05:00 +29°C° 0 mm 2 mps 658 mmHg 15%
    06:00 +28°C° 0 mm 2 mps 658 mmHg 15%
    07:00 +33°C° 0 mm 3 mps 659 mmHg 13%
    08:00 +36°C° 0 mm 4 mps 660 mmHg 11%
    09:00 +40°C° 0 mm 5 mps 661 mmHg 8%
    10:00 +42°C° 0 mm 4 mps 661 mmHg 7%
    11:00 +43°C° 0 mm 4 mps 660 mmHg 7%
    12:00 +44°C° 0 mm 3 mps 660 mmHg 6%
    13:00 +44°C° 0 mm 3 mps 660 mmHg 6%
    14:00 +45°C° 0 mm 2 mps 659 mmHg 6%
    15:00 +45°C° 0 mm 2 mps 659 mmHg 5%
    16:00 +45°C° 0 mm 3 mps 659 mmHg 6%
    17:00 +44°C° 0 mm 4 mps 658 mmHg 6%
    18:00 +45°C° 0 mm 5 mps 658 mmHg 6%
    19:00 +41°C° 0 mm 4 mps 658 mmHg 7%
    20:00 +38°C° 0 mm 4 mps 658 mmHg 8%
    21:00 +35°C° 0 mm 4 mps 657 mmHg 9%
    22:00 +35°C° 0 mm 4 mps 657 mmHg 10%
    23:00 +34°C° 0 mm 3 mps 657 mmHg 10%

    27 July, Saturday

    Time Temperature Precipitation Wind Pressure Humidity
    00:00 +33°C° 0 mm 3 mps 657 mmHg 11%
    01:00 +31°C° 0 mm 3 mps 657 mmHg 12%
    02:00 +30°C° 0 mm 3 mps 656 mmHg 12%
    03:00 +29°C° 0 mm 2 mps 656 mmHg 13%
    04:00 +29°C° 0 mm 2 mps 656 mmHg 14%
    05:00 +28°C° 0 mm 2 mps 656 mmHg 14%
    06:00 +28°C° 0 mm 1 mps 656 mmHg 15%
    07:00 +31°C° 0 mm 2 mps 657 mmHg 13%
    08:00 +36°C° 0 mm 2 mps 658 mmHg 10%
    09:00 +39°C° 0 mm 3 mps 659 mmHg 8%
    10:00 +41°C° 0 mm 2 mps 659 mmHg 7%
    11:00 +42°C° 0 mm 2 mps 659 mmHg 7%
    12:00 +43°C° 0 mm 1 mps 659 mmHg 6%
    13:00 +45°C° 0 mm 2 mps 658 mmHg 6%
    14:00 +45°C° 0 mm 3 mps 658 mmHg 6%
    15:00 +47°C° 0 mm 4 mps 658 mmHg 5%
    16:00 +45°C° 0 mm 4 mps 657 mmHg 5%
    17:00 +46°C° 0 mm 5 mps 657 mmHg 6%
    18:00 +45°C° 0 mm 6 mps 656 mmHg 6%
    19:00 +42°C° 0 mm 5 mps 656 mmHg 7%
    20:00 +38°C° 0 mm 4 mps 656 mmHg 8%
    21:00 +35°C° 0 mm 3 mps 656 mmHg 10%
    22:00 +34°C° 0 mm 3 mps 656 mmHg 11%
    23:00 +32°C° 0 mm 2 mps 655 mmHg 11%

    28 July, Sunday

    Time Temperature Precipitation Wind Pressure Humidity
    00:00 +31°C° 0 mm 2 mps 655 mmHg 12%
    01:00 +30°C° 0 mm 2 mps 655 mmHg 13%
    02:00 +29°C° 0 mm 2 mps 655 mmHg 13%
    03:00 +29°C° 0 mm 1 mps 654 mmHg 14%
    04:00 +29°C° 0 mm 1 mps 655 mmHg 14%
    05:00 +29°C° 0 mm 2 mps 655 mmHg 14%
    06:00 +29°C° 0 mm 2 mps 655 mmHg 14%
    07:00 +32°C° 0 mm 2 mps 656 mmHg 12%
    08:00 +36°C° 0 mm 2 mps 657 mmHg 10%
    09:00 +39°C° 0 mm 2 mps 658 mmHg 8%
    10:00 +42°C° 0 mm 3 mps 658 mmHg 7%
    11:00 +43°C° 0 mm 3 mps 658 mmHg 7%
    12:00 +45°C° 0 mm 3 mps 658 mmHg 6%
    13:00 +45°C° 0 mm 3 mps 657 mmHg 6%
    14:00 +46°C° 0 mm 3 mps 657 mmHg 5%
    15:00 +46°C° 0 mm 3 mps 656 mmHg 5%
    16:00 +46°C° 0 mm 3 mps 656 mmHg 5%
    17:00 +45°C° 0 mm 3 mps 656 mmHg 6%
    18:00 +45°C° 0 mm 3 mps 656 mmHg 6%
    19:00 +42°C° 0 mm 3 mps 656 mmHg 7%
    20:00 +39°C° 0 mm 3 mps 655 mmHg 8%
    21:00 +37°C° 0 mm 3 mps 655 mmHg 9%
    22:00 +36°C° 0 mm 4 mps 656 mmHg 10%
    23:00 +35°C° 0 mm 5 mps 656 mmHg 11%
    Show more